Dawson Community Airport
KGDV : now visible

Airfield :











YOU CAN JOIN US ON...

 
LOGIN :

Register | Disclaimer

   EN    FR    IT 

 









Legend :    VFR   Marginal VFR   IFR   Intensive IFR   Very Intensive IFR
Visi :
Ceiling :
>= 8 km
>= 3000ft
5 to 8 km
1000 to 3000 ft
1500m to 5 km
500 to 1000 ft
800 to 1500m
200 to 500 ft
< 800m
< 200 ft
Symbols :   Thunderstorms  Fog  Heavy snow  Heavy precipitations  Wind > 20 kt






- Airport Elevation : 2458 ft


KGDV - Dawson Community

CURRENT METAR :
  • 232156Z AUTO 31013G16KT 10SM CLR 33/02 A2997 RMK AO2 SLP126 T03280017

EXPIRED METARs :
  • 232056Z AUTO 29009G18KT 10SM CLR 33/04 A2998 RMK AO2 SLP128 T03280039 55002
  • 231956Z AUTO 35008G19KT 10SM CLR 32/05 A2998 RMK AO2 SLP127 T03220050

TAF KGDV
Valid from the 23 at 18:00 until the 24 at 18:00 UTC


231724Z 2318/2418 VRB06KT P6SM FEW120
FM240000 32015G25KT 6SM HZ FEW150
FM240300 35007KT 6SM HZ SKC
KZLC FIR / North America



MET'MAP, your aeronautical weather chart ! - Copyright ORBIFLY December 2007 - Disclaimer

ORBIFLY MET'MAP TEAM :

Programming & Development : Alexandra Zaïnal
Concept & original design : Baudouin d'Aumeries
Assistance for programming : Marc-Olivier Méhu
Technical & hardware support : Manuel Goepfert

Contact : metmap@orbifly.com




SOURCES & CREDITS :

   NOAA       Earth
Advisory